K0VXP-1 Weather Reports


Display with metric or nautical units.
time (UTC)temp
F
wind
direction
speed
MPH
gust
MPH
rain 1hr
in
rain 24hr
in
rain mn
in
humidity
%
barometer
mb
20260831233043 55 0 0.0 1.0 0.00 0.50 0.14 92 1028.4
20260831231537 55 342 2.0 2.0 0.01 0.50 0.14 92 1028.6
20260831230037 55 0 0.0 3.0 0.04 0.50 0.14 92 1028.5
20260831224535 54 14 0.0 1.0 0.07 0.50 0.14 1028.7
20260831223033 54 1.0 4.0 0.10 0.50 0.14 90 1029.0
20260831221537 53 0 0.0 0.0 0.12 0.49 0.13 90 1029.1
20260831220035 53 0 0.0 4.0 0.09 0.46 0.10 88 1029.4
20260831214539 54 195 5.0 10.0 0.06 0.43 0.07 85 1029.6
20260831213039 56 182 5.0 10.0 0.02 0.39 0.03 81 1029.4
20260831211537 0 203 7.0 0.0 0.00 0.37 0.01 1029.3
20260831210035 0 0.0 0.0 0.00 0.37 0.01 1029.2
20260831204535 0 0.0 0.0 0.00 0.37 0.01 1028.7
20260831203032 0 13.0 0.0 0.00 0.37 0.01 1028.6
20260831201536 68 265 10.0 18.0 0.00 0.37 0.01 55 1028.2
20260831200037 70 260 6.0 15.0 0.00 0.37 0.01 53 1028.3
20260831194550 70 265 6.0 13.0 0.00 0.52 0.01 54 1028.4
20260831193038 69 4.0 9.0 0.00 0.52 0.01 56 1028.5
20260831191535 69 228 3.0 7.0 0.00 0.52 0.01 57 1028.5
20260831190036 69 267 3.0 7.0 0.00 0.52 0.01 66 1028.7
20260831184535 66 232 1.0 5.0 0.00 0.62 0.01 71 1029.0
20260831183036 64 0 1.0 6.0 0.00 0.62 0.01 74 1029.3
20260831181532 62 301 0.0 3.0 0.00 0.62 0.01 77 1029.6
20260831180039 61 246 0.0 4.0 0.00 0.62 0.01 78 1029.7
20260831174535 60 249 0.0 7.0 0.00 0.62 0.01 79 1029.9
20260831173037 60 236 1.0 9.0 0.00 0.62 0.01 82 1030.0
20260831171537 58 204 2.0 6.0 0.00 0.62 0.01 84 1030.1
20260831170040 57 209 3.0 5.0 0.00 0.62 0.01 86 1030.1
20260831164542 57 250 2.0 6.0 0.00 0.62 0.01 87 1030.1
20260831163035 57 215 1.0 7.0 0.00 0.62 0.01 90 1029.9
20260831161548 56 0 0.0 0.0 0.00 0.62 0.01 91 1029.8
20260831160035 54 0.0 0.0 0.00 0.62 0.01 93 1029.5
20260831154559 54 0 0.0 3.0 0.00 0.62 0.01 93 1029.5
20260831153034 54 0 0.0 2.0 0.00 0.62 0.01 93 1029.4
20260831151535 54 0 0.0 3.0 0.00 0.62 0.01 94 1029.5
20260831150034 54 0 0.0 0.0 0.00 0.62 0.01 95 1029.6
20260831144535 53 0 0.0 0.0 0.00 0.62 0.01 95 1029.7
20260831143036 52 0 0.0 0.0 0.00 0.62 0.01 96 1029.6
20260831141538 51 0 0.0 3.0 0.00 0.62 0.01 96 1029.6
20260831140044 49 0 0.0 1.0 0.00 0.62 0.01 96 1029.4
20260831134540 48 0 0.0 0.0 0.00 0.62 0.01 95 1029.5
20260831133040 46 0 0.0 0.0 0.00 0.62 0.01 95 1029.3
20260831131534 45 0 0.0 0.0 0.00 0.62 0.01 95 1029.0
20260831130044 45 0 0.0 0.0 0.00 0.62 0.01 95 1028.4
20260831124535 45 0 0.0 0.0 0.00 0.62 0.01 95 1028.4
20260831123039 44 0 0.0 0.0 0.00 0.62 0.01 95 1028.4
20260831121541 44 0 0.0 0.0 0.00 0.62 0.01 95 1028.6
20260831120037 44 0 0.0 1.0 0.00 0.62 0.01 95 1028.5
20260831114534 44 67 2.0 4.0 0.00 0.62 0.01 95 1028.5
20260831113037 45 0 0.0 0.0 0.00 0.62 0.01 95 1028.6
20260831111539 45 0 0.0 0.0 0.00 0.62 0.01 95 1028.5
20260831110036 45 0 0.0 0.0 0.00 0.62 0.01 95 1028.5
20260831104537 45 0 0.0 0.0 0.00 0.62 0.01 95 1028.5
20260831103033 45 0 0.0 0.0 0.00 0.62 0.01 95 1028.7
20260831101537 45 0 0.0 0.0 0.00 0.62 0.01 95 1028.7
20260831100050 45 0 0.0 0.0 0.00 0.62 0.01 95 1028.6
20260831094540 45 0 0.0 0.0 0.00 0.62 0.01 95 1028.6
20260831093037 46 0 0.0 0.0 0.01 0.62 0.01 94 1028.7
20260831091536 45 0 0.0 0.0 0.01 0.62 0.01 94 1028.6
20260831090034 45 0 0.0 3.0 0.01 0.62 0.01 94 1028.5
20260831084540 45 0 0.0 2.0 0.01 0.62 0.01 94 1028.7
20260831083043 45 70 1.0 4.0 0.00 0.61 0.00 94 1028.8
20260831081537 45 0 0.0 2.0 0.00 0.61 0.00 94 1028.8
20260831080052 45 50 3.0 5.0 0.00 0.61 0.00 94 1029.0
20260831074536 45 63 3.0 6.0 0.00 0.61 0.00 94 1029.0
20260831073039 45 55 3.0 8.0 0.00 0.61 0.00 94 1029.1
20260831071535 46 40 3.0 5.0 0.00 0.61 0.00 94 1029.2
20260831070039 45 28 3.0 5.0 0.00 0.61 0.00 94 1029.3
20260831064535 45 14 3.0 6.0 0.00 0.61 0.00 94 1029.1
20260831063035 45 0 0.0 4.0 0.00 0.61 0.00 94 1029.4
20260831061536 46 0 0.0 0.0 0.00 0.61 0.00 94 1029.3
20260831060038 46 0 0.0 0.0 0.00 0.61 0.00 94 1029.6
20260831054538 47 0 0.0 0.0 0.00 0.61 0.61 94 1029.9
20260831053037 47 0 0.0 0.0 0.00 0.61 0.61 93 1029.8
20260831051541 47 0 0.0 0.0 0.00 0.61 0.61 93 1029.9
20260831050035 47 0 0.0 0.0 0.00 0.61 0.61 93 1029.8
20260831044545 48 0 0.0 0.0 0.00 0.61 0.61 93 1030.1
20260831043037 48 0 0.0 0.0 0.00 0.61 0.61 93 1030.3
20260831041546 48 0 0.0 0.0 0.02 0.61 0.61 93 1030.4
20260831040038 49 0 0.0 0.0 0.07 0.61 0.61 93 1030.7
20260831034643 49 0 0.0 6.0 0.13 0.61 0.61 93 1030.7
20260831034538 49 0 0.0 6.0 0.13 0.61 0.61 93 1030.7
20260831033037 49 175 3.0 6.0 0.20 0.61 0.61 92 1030.7
20260831031538 49 0 0.0 9.0 0.24 0.58 0.58 92 1030.5
20260831030038 49 53 9.0 25.0 0.24 0.54 0.54 91 1030.0
20260831024535 49 24 3.0 7.0 0.22 0.48 0.48 90 1030.6
20260831023038 50 239 5.0 19.0 0.15 0.40 0.40 88 1031.2
20260831021539 53 244 15.0 22.0 0.09 0.34 0.34 87 1031.0
20260831020038 54 0 0.0 4.0 0.05 0.30 0.30 85 1029.3
20260831014551 55 303 2.0 4.0 0.01 0.26 0.26 80 1028.4
20260831013042 55 0 0.0 4.0 0.00 0.25 0.25 78 1028.0
20260831011536 55 118 6.0 7.0 0.00 0.25 0.25 84 1027.7
20260831010039 55 0 0.0 6.0 0.00 0.25 0.25 85 1027.9
20260831004539 55 111 4.0 7.0 0.00 0.25 0.25 81 1028.0
20260831003047 0 0.0 0.0 0.00 0.25 0.25 1028.4
20260831001548 0 0.0 0.0 0.00 0.25 0.25 1028.3
20260831000045 0 0.0 0.0 0.00 0.25 0.25 1028.3
20260830234536 0 0.0 0.0 0.00 0.25 0.25 1028.1